[[{"header":{"parameterUnit":"m.s-1","parameterCategory":1,"la1":30.2992,"la2":30.254,"lo1":-89.0895,"lo2":-89.0443,"dy":0.0025,"dx":0.0025,"nx":19,"ny":19,"refTime":"2026-03-27T09:00:00:Z","depth":0,"parameterNumber":2,"parameterNumberName":"U-component_of_WINDS"},"data":[0,0,0,1.4288,1.429,1.4373,1.4374,1.4481,1.4482,0,0,0,0,0,0,0,0,0,0,0,1.4263,1.4264,1.4288,1.429,1.4373,1.4374,1.4481,1.4482,0,0,0,0,0,0,0,0,0,0,0,1.4263,1.4264,1.4265,1.429,1.4373,1.4374,1.4481,1.4418,0,0,0,0,0,0,0,0,0,0,1.4336,1.4314,1.4264,1.4265,1.4291,1.4373,1.4374,1.4415,1.4422,1.4444,0,1.4464,0,1.4475,1.449,1.449,0,0,0,1.4289,1.4308,1.433,1.4265,1.4291,1.4373,1.4336,1.4418,1.4426,1.4453,1.4465,1.4469,1.4477,1.449,1.4491,1.462,1.462,0,0,1.4285,1.4279,1.4325,1.4336,1.4323,1.4333,1.4338,1.4423,1.4436,1.4466,1.4472,1.4478,1.4491,1.4492,1.4619,1.462,0,0,0,1.4272,1.4275,1.4296,1.4331,1.4346,1.4335,1.4341,1.4432,1.4439,1.4473,1.448,1.4492,1.4493,1.4619,1.462,1.4643,0,0,0,1.4269,1.4268,1.4294,1.4291,1.4345,1.439,1.4348,1.4433,1.4443,1.4479,1.4492,1.4494,1.4618,1.4619,1.4641,1.4655,0,0,0,1.4258,1.4267,1.4279,1.429,1.4326,1.4389,1.4401,1.4436,1.4447,1.449,1.4494,1.4617,1.4619,1.4639,1.4652,1.4687,0,0,0,1.4244,1.4299,1.4279,1.4343,1.4325,1.4404,1.4401,1.4459,1.4499,1.4492,1.4618,1.4619,1.4639,1.465,1.4685,1.4714,1.4726,0,0,1.431,1.4307,1.4345,1.433,1.441,1.4391,1.4475,1.4517,1.4527,1.4588,1.4592,1.4642,1.4652,1.4686,1.4796,1.4806,0,0,0,1.4364,1.4391,1.4414,1.4451,1.4485,1.4515,1.4545,1.456,1.4613,1.4557,1.4665,1.4671,1.4691,1.4705,1.4713,1.4731,1.4626,1.4626,1.4626,1.4448,1.4458,1.4522,1.4541,1.4578,1.4608,1.4638,1.4664,1.4664,1.4689,1.4707,1.4772,1.4789,1.4795,1.4813,1.4724,1.4724,1.4724,1.4724,1.4545,1.4585,1.4583,1.4643,1.4653,1.4705,1.4736,1.4734,1.4783,1.476,1.4778,1.475,1.4805,1.4821,1.4726,1.4726,1.4725,1.4725,1.4725,1.46,1.4621,1.4639,1.4694,1.4735,1.4753,1.48,1.4808,1.4816,1.4834,1.4853,1.4853,1.4852,1.4843,1.4843,1.4843,1.4843,1.4844,1.4844,1.4649,1.4669,1.4708,1.4748,1.4773,1.4807,1.4838,1.4863,1.4892,1.4894,1.4894,1.489,1.4809,1.4787,1.4847,1.4847,1.4846,1.4846,1.4846,1.4742,1.4722,1.4782,1.4806,1.4854,1.4894,1.4904,1.4954,1.4975,1.4998,1.4991,1.493,1.4927,1.4921,1.4903,1.4989,1.4989,1.4989,1.4989,1.4787,1.4787,1.4849,1.4888,1.4928,1.4942,1.5009,1.5035,1.5058,1.5072,1.506,1.5038,1.5031,1.5032,1.5024,1.5007,1.5118,1.5119,1.5119,1.4844,1.4848,1.4903,1.4925,1.4963,1.4996,1.5059,1.5104,1.5126,1.5124,1.5082,1.5077,1.5041,1.5029,1.5024,1.5011,1.4981,0,0]},{"header":{"parameterUnit":"m.s-1","parameterCategory":1,"la1":30.2992,"la2":30.254,"lo1":-89.0895,"lo2":-89.0443,"dy":0.0025,"dx":0.0025,"nx":19,"ny":19,"refTime":"2026-03-27T09:00:00:Z","depth":0,"parameterNumber":3,"parameterNumberName":"V-component_of_WINDS"},"data":[0,0,0,-3.5954,-3.5952,-3.5863,-3.5863,-3.5728,-3.5726,0,0,0,0,0,0,0,0,0,0,0,-3.5971,-3.597,-3.5954,-3.5952,-3.5864,-3.5863,-3.5728,-3.5726,0,0,0,0,0,0,0,0,0,0,0,-3.5971,-3.597,-3.5968,-3.5951,-3.5864,-3.5863,-3.5728,-3.5802,0,0,0,0,0,0,0,0,0,0,-3.5891,-3.5898,-3.597,-3.5968,-3.5951,-3.5864,-3.5863,-3.5805,-3.5797,-3.5759,0,-3.5728,0,-3.5725,-3.5716,-3.5716,0,0,0,-3.5957,-3.5905,-3.5891,-3.5968,-3.595,-3.5864,-3.5905,-3.5801,-3.5791,-3.5748,-3.5726,-3.5722,-3.5723,-3.5715,-3.5714,-3.5496,-3.5494,0,0,-3.5961,-3.5948,-3.5897,-3.5884,-3.5902,-3.5907,-3.5902,-3.5795,-3.5768,-3.5726,-3.5719,-3.5721,-3.5714,-3.5713,-3.5497,-3.5495,0,0,0,-3.5972,-3.5951,-3.594,-3.5889,-3.5876,-3.5905,-3.5898,-3.5773,-3.5771,-3.5717,-3.5719,-3.5713,-3.5711,-3.5498,-3.5496,-3.5424,0,0,0,-3.5975,-3.5958,-3.5942,-3.5932,-3.5877,-3.5824,-3.5878,-3.5778,-3.5767,-3.572,-3.5713,-3.571,-3.55,-3.5497,-3.5429,-3.5391,0,0,0,-3.5979,-3.5958,-3.5943,-3.5932,-3.5895,-3.5826,-3.5818,-3.5776,-3.5767,-3.5716,-3.571,-3.5501,-3.5498,-3.5434,-3.5398,-3.5331,0,0,0,-3.5978,-3.5875,-3.5942,-3.5827,-3.5895,-3.5784,-3.5819,-3.5735,-3.5682,-3.5713,-3.5499,-3.5496,-3.5435,-3.5403,-3.5336,-3.5272,-3.5245,0,0,-3.584,-3.5858,-3.5792,-3.5849,-3.5725,-3.5799,-3.5661,-3.5621,-3.5625,-3.5537,-3.5532,-3.5428,-3.5399,-3.5332,-3.5098,-3.5076,0,0,0,-3.5744,-3.5696,-3.5666,-3.5619,-3.5591,-3.5564,-3.5548,-3.5534,-3.5462,-3.5579,-3.5386,-3.5369,-3.533,-3.53,-3.5282,-3.525,-3.5482,-3.5483,-3.5483,-3.5526,-3.5544,-3.5437,-3.5444,-3.5397,-3.5386,-3.5349,-3.5327,-3.5352,-3.5307,-3.528,-3.5137,-3.5101,-3.5088,-3.5054,-3.5248,-3.5248,-3.5248,-3.5248,-3.5326,-3.5262,-3.5306,-3.5218,-3.5236,-3.516,-3.5145,-3.5167,-3.5096,-3.5157,-3.5123,-3.5187,-3.5064,-3.5035,-3.5242,-3.5243,-3.5244,-3.5244,-3.5245,-3.5185,-3.5158,-3.5148,-3.5085,-3.5034,-3.5043,-3.4977,-3.4994,-3.5008,-3.4975,-3.495,-3.4951,-3.4954,-3.4963,-3.4962,-3.4962,-3.4961,-3.4961,-3.4961,-3.5042,-3.5034,-3.4978,-3.4946,-3.492,-3.4888,-3.4879,-3.4852,-3.4826,-3.4843,-3.4843,-3.4873,-3.505,-3.5094,-3.4953,-3.4954,-3.4955,-3.4956,-3.4957,-3.483,-3.4883,-3.4797,-3.4773,-3.4737,-3.4686,-3.4712,-3.4657,-3.4637,-3.4604,-3.4643,-3.4771,-3.4788,-3.4802,-3.4839,-3.464,-3.464,-3.464,-3.464,-3.4711,-3.4725,-3.4644,-3.4603,-3.4565,-3.4582,-3.4482,-3.4475,-3.4474,-3.4463,-3.4494,-3.4544,-3.4559,-3.4566,-3.4586,-3.462,-3.4371,-3.4371,-3.4371,-3.4583,-3.4594,-3.4508,-3.4515,-3.449,-3.4466,-3.4374,-3.4322,-3.4332,-3.436,-3.4454,-3.4465,-3.4546,-3.4572,-3.4599,-3.4629,-3.4692,0,0]}]]